Weather in Radviliškis

Lithuania     55°48′44″N   23°32′49″E
temp.,
°C
wind,
m/s
gust,
m/s
humid.,
%
clouds,
%
prec.,
mm/h
press.,
hPa
HPBL,
m
28 july, wed
wed2800:00+19sw379545 0.0 1011136
03:00+16wsw379511 0.0 1010129
06:00+16wsw33967 0.0 101169
09:00+20wsw348227 0.0 1011372
12:00+24wsw456593 0.0 1011916
15:00+26wsw575189 0.1 10102106
18:00+25w47595 0.0 1009581
21:00+21w22675 0.0 100911
29 july, thu
thu2900:00+19sw2270100 0.0 100914
03:00+16wsw3693100 0.5 1008123
06:00+15wsw37975 0.9 1008170
09:00+19w478616 0.9 1008551
12:00+23wsw566027 0.0 10081456
15:00+22wsw4864100 0.0 1007595
18:00+23w695984 0.0 10071392
21:00+19wsw376837 0.1 1007199
30 july, fri
fri3000:00+14wsw389362 0.1 1008190
03:00+13sw410952 0.1 1008194
06:00+13ssw512905 0.0 1007310
09:00+18sw713674 0.0 10061391
12:00+21wsw9134993 0.0 10062150
15:00+22wsw914425 0.0 10052432
18:00+20wsw8144998 0.0 10041967
21:00+17wsw613612 0.0 1003790
31 july, sat
sat3100:00+16sw714665 0.0 1003837
03:00+16wsw714766 0.0 1004704
06:00+15sw5128874 0.0 1004382
09:00+18sw61174100 0.0 1005611
12:00+22sw6856100 0.0 10051096
15:00+24ssw6848100 0.0 10041798
18:00+23ssw796583 0.2 10021335
21:00+18wsw3689100 1.8 1003157
1 august, sun
sun100:00+14sw39920 0.0 1004181
03:00+14sw5139423 0.0 1004324
06:00+13sw6149346 0.0 1004379
09:00+16wsw7138636 0.1 1004617
12:00+21wsw8105754 0.1 10061706
15:00+21wsw71057100 0.1 10071723
18:00+20w5861100 0.0 10071368
21:00+16w3379100 0.0 100746